Stanton, MN

1:39 PM CDT on September 20, 2017 (GMT -0500)
Stanton

Weather History for KSYN - January, 2014

Change the Weather History Date:

Thursday, January 16, 2014

  Actual Average (KLVN) Record (KLVN)
Temperature  
Mean Temperature 20 °F -  
Max Temperature 35 °F 22 °F 47 °F (1961)
Min Temperature 6 °F 1 °F -35 °F (1977)
Degree Days  
Heating Degree Days 44    
Moisture  
Dew Point 13 °F    
Average Humidity 73    
Maximum Humidity 90    
Minimum Humidity 60    
Precipitation  
Precipitation 0.00 in - - ()
Sea Level Pressure  
Sea Level Pressure 29.57 in    
Wind  
Wind Speed 16 mph (WNW)    
Max Wind Speed 33 mph    
Max Gust Speed 44 mph    
Visibility 7 miles    
Events Rain , Snow    
Averages and records for this station are not official NWS values.
T = Trace of Precipitation, MM = Missing Value Source: NWS Daily Summary

Daily Weather History Graph

Daily Weather History Graph

Search for Another Location

Airport or City:

Trip Planner

Search our weather history database for the weather conditions in past years. The results will help you decide how hot, cold, wet, or windy it might be!

Date:

Astronomy

Jan. 16, 2014 Rise Set
Actual Time 7:44 AM CST 4:59 PM CST
Civil Twilight 7:12 AM CST 5:32 PM CST
Nautical Twilight 6:36 AM CST 6:07 PM CST
Astronomical Twilight 6:01 AM CST 6:42 PM CST
Moon 5:56 PM CST (1/16) 7:34 AM CST (1/16)
Length of Visible Light 10h 19m
Length of Day
9h 15m
Full, 100% of the Moon is Illuminated
Jan 16
Full
Jan 23
Last Quarter
Jan 30
New
Feb 6
First Quarter
Feb 14
Full

Hourly Weather History & Observations

Time (CST) Temp. Windchill Dew Point Humidity Pressure Visibility Wind Dir Wind Speed Gust Speed Precip Events Conditions
12:12 AM 27.3 °F 15.2 °F 20.8 °F 77% 29.40 in 10.0 mi SW 16.1 mph - N/A   Scattered Clouds
12:32 AM 28.6 °F 18.2 °F 21.9 °F 76% 29.40 in 10.0 mi SW 12.7 mph - N/A   Clear
12:52 AM 30.4 °F 20.5 °F 23.0 °F 74% 29.39 in 10.0 mi SW 12.7 mph - N/A   Clear
1:12 AM 30.9 °F 21.7 °F 23.2 °F 73% 29.39 in 10.0 mi SW 11.5 mph - N/A   Clear
1:32 AM 31.6 °F 22.1 °F 24.4 °F 75% 29.38 in 10.0 mi SW 12.7 mph 18.4 mph N/A   Mostly Cloudy
1:52 AM 32.2 °F 22.7 °F 25.2 °F 75% 29.38 in 10.0 mi SW 12.7 mph 17.3 mph N/A   Overcast
2:12 AM 33.1 °F 23.4 °F 25.7 °F 74% 29.38 in 10.0 mi WSW 13.8 mph 17.3 mph N/A Snow Light Snow
2:32 AM 34.0 °F 25.5 °F 27.0 °F 75% 29.38 in 5.0 mi West 11.5 mph 18.4 mph N/A Snow Light Snow
2:52 AM 34.0 °F 28.0 °F 29.1 °F 82% 29.38 in 2.0 mi WSW 6.9 mph - N/A Snow Light Snow
3:12 AM 33.3 °F 26.4 °F 27.9 °F 81% 29.38 in 10.0 mi SW 8.1 mph - N/A   Mostly Cloudy
3:32 AM 35.6 °F 26.2 °F 28.2 °F 75% 29.38 in 7.0 mi West 15.0 mph 23.0 mph N/A Snow Light Snow
3:52 AM 34.5 °F 26.7 °F 30.2 °F 84% 29.37 in 10.0 mi West 10.4 mph - N/A   Overcast
4:12 AM 34.5 °F 24.8 °F 31.3 °F 88% 29.37 in 2.5 mi West 15.0 mph 20.7 mph N/A Snow Light Snow
4:32 AM 34.5 °F 24.5 °F 31.8 °F 90% 29.36 in 10.0 mi West 16.1 mph - N/A Snow Light Snow
4:52 AM 35.2 °F 26.2 °F 31.3 °F 85% 29.36 in 10.0 mi West 13.8 mph 18.4 mph N/A   Overcast
5:12 AM 35.1 °F 25.5 °F 31.1 °F 85% 29.36 in 10.0 mi West 15.0 mph 19.6 mph N/A   Overcast
5:32 AM 34.9 °F 26.2 °F 31.6 °F 88% 29.36 in 7.0 mi West 12.7 mph 19.6 mph N/A Snow Light Snow
5:52 AM 34.7 °F 25.5 °F 31.6 °F 89% 29.36 in 10.0 mi West 13.8 mph 18.4 mph N/A Snow Light Snow
6:11 AM 34.3 °F 25.9 °F 31.8 °F 90% 29.36 in 5.0 mi West 11.5 mph - N/A Snow Light Snow
6:32 AM 34.7 °F 25.9 °F 32.0 °F 90% 29.36 in 7.0 mi West 12.7 mph - N/A Snow Light Snow
6:52 AM 34.7 °F 25.9 °F 31.8 °F 89% 29.36 in 10.0 mi West 12.7 mph 17.3 mph N/A Snow Light Snow
7:12 AM 34.5 °F 25.7 °F 31.6 °F 89% 29.36 in 10.0 mi West 12.7 mph - N/A Snow Light Snow
7:32 AM 34.7 °F 25.9 °F 31.6 °F 89% 29.36 in 10.0 mi West 12.7 mph 20.7 mph N/A   Overcast
7:52 AM 34.9 °F 25.3 °F 31.6 °F 88% 29.37 in 10.0 mi West 15.0 mph 23.0 mph N/A   Overcast
8:12 AM 34.3 °F 22.0 °F 31.1 °F 88% 29.38 in 3.0 mi WNW 24.2 mph 33.4 mph N/A Rain Rain
8:32 AM 32.5 °F 18.8 °F 27.9 °F 83% 29.41 in 10.0 mi WNW 27.6 mph 32.2 mph N/A Rain Light Rain
8:52 AM 30.2 °F 15.7 °F 22.8 °F 74% 29.44 in 4.0 mi NW 27.6 mph 41.4 mph N/A   Overcast
9:12 AM 28.4 °F 14.4 °F 20.3 °F 72% 29.46 in 3.0 mi NW 23.0 mph 34.5 mph N/A Snow Light Snow
9:32 AM 28.9 °F 14.3 °F 19.6 °F 68% 29.48 in 10.0 mi WNW 26.5 mph 33.4 mph N/A   Overcast
9:52 AM 27.9 °F 13.1 °F 19.8 °F 72% 29.50 in 7.0 mi NW 25.3 mph 31.1 mph N/A   Overcast
10:12 AM 25.5 °F 10.6 °F 14.2 °F 62% 29.51 in 4.0 mi NW 23.0 mph 29.9 mph N/A   Haze
10:32 AM 24.6 °F 10.1 °F 12.7 °F 61% 29.52 in 3.0 mi NW 20.7 mph 34.5 mph N/A   Haze
10:52 AM 23.9 °F 7.5 °F 13.1 °F 63% 29.54 in 5.0 mi WNW 26.5 mph 29.9 mph N/A   Haze
11:12 AM 22.6 °F 5.5 °F 11.1 °F 61% 29.54 in 2.5 mi WNW 27.6 mph 38.0 mph N/A   Haze
11:32 AM 21.7 °F 5.2 °F 9.7 °F 60% 29.53 in 5.0 mi WNW 24.2 mph 28.8 mph N/A   Haze
11:52 AM 20.1 °F 1.8 °F 8.6 °F 61% 29.54 in 1.5 mi WNW 28.8 mph 43.7 mph N/A   Haze
12:12 PM 18.9 °F -1.1 °F 8.2 °F 63% 29.55 in 1.5 mi WNW 33.4 mph 42.6 mph N/A   Haze
12:32 PM 17.6 °F -1.0 °F 7.2 °F 64% 29.55 in 1.8 mi WNW 26.5 mph 34.5 mph N/A   Haze
12:52 PM 18.1 °F -0.6 °F 7.5 °F 63% 29.55 in 2.5 mi WNW 27.6 mph 34.5 mph N/A   Haze
1:12 PM 17.2 °F -0.4 °F 5.5 °F 60% 29.56 in 7.0 mi NW 23.0 mph 29.9 mph N/A   Overcast
1:32 PM 15.6 °F -2.6 °F 5.7 °F 65% 29.57 in 5.0 mi WNW 23.0 mph 29.9 mph N/A   Haze
1:52 PM 15.3 °F -3.0 °F 5.9 °F 67% 29.58 in 10.0 mi WNW 23.0 mph 27.6 mph N/A   Overcast
2:12 PM 14.7 °F -2.0 °F 5.4 °F 66% 29.60 in 5.0 mi NW 18.4 mph 31.1 mph N/A   Haze
2:32 PM 14.0 °F -3.9 °F 4.5 °F 66% 29.61 in 7.0 mi NW 20.7 mph 27.6 mph N/A   Overcast
2:52 PM 13.1 °F -5.5 °F 4.5 °F 68% 29.63 in 4.0 mi NW 21.9 mph 28.8 mph N/A   Haze
3:12 PM 12.6 °F -6.2 °F 3.9 °F 68% 29.65 in 5.0 mi NW 21.9 mph 27.6 mph N/A   Haze
3:32 PM 12.0 °F -6.9 °F 2.5 °F 66% 29.67 in 5.0 mi NW 21.9 mph 29.9 mph N/A   Haze
3:52 PM 11.8 °F -7.2 °F 1.4 °F 63% 29.68 in 10.0 mi WNW 21.9 mph 26.5 mph N/A   Overcast
4:12 PM 11.3 °F -6.5 °F 1.6 °F 65% 29.70 in 10.0 mi WNW 18.4 mph 26.5 mph N/A   Overcast
4:32 PM 10.8 °F -9.4 °F 2.3 °F 69% 29.71 in 5.0 mi WNW 24.2 mph 27.6 mph N/A   Haze
4:52 PM 10.4 °F -8.2 °F 2.1 °F 69% 29.73 in 5.0 mi NW 19.6 mph - N/A   Haze
5:12 PM 9.7 °F -8.1 °F 2.5 °F 73% 29.74 in 7.0 mi WNW 17.3 mph - N/A   Overcast
5:32 PM 8.6 °F -8.9 °F 2.3 °F 76% 29.76 in 5.0 mi WNW 16.1 mph - N/A   Haze
5:52 PM 8.4 °F -8.6 °F 0.5 °F 70% 29.77 in 10.0 mi WNW 15.0 mph - N/A   Mostly Cloudy
6:12 PM 7.7 °F -8.2 °F 0.9 °F 74% 29.77 in 10.0 mi WNW 12.7 mph - N/A   Overcast
6:32 PM 7.3 °F -9.3 °F 0.3 °F 73% 29.78 in 10.0 mi WNW 13.8 mph - N/A   Mostly Cloudy
6:52 PM 7.0 °F -9.1 °F -0.4 °F 72% 29.79 in 10.0 mi WNW 12.7 mph - N/A   Scattered Clouds
7:12 PM 6.8 °F -8.6 °F -1.5 °F 69% 29.79 in 10.0 mi WNW 11.5 mph - N/A   Clear
7:31 PM 6.3 °F -8.4 °F -2.2 °F 68% 29.80 in 10.0 mi WNW 10.4 mph - N/A   Scattered Clouds
7:52 PM 7.2 °F -8.1 °F -0.8 °F 70% 29.81 in 7.0 mi WNW 11.5 mph - N/A Snow Light Snow
8:12 PM 7.7 °F -8.9 °F -0.9 °F 68% 29.81 in 10.0 mi NW 13.8 mph 18.4 mph N/A   Overcast
8:32 PM 7.5 °F -8.4 °F -0.9 °F 68% 29.81 in 10.0 mi WNW 12.7 mph - N/A   Overcast
8:52 PM 7.0 °F -10.4 °F 0.5 °F 75% 29.82 in 4.0 mi WNW 15.0 mph - N/A Snow Light Snow
9:12 PM 7.0 °F -9.1 °F -0.2 °F 72% 29.82 in 10.0 mi NW 12.7 mph - N/A   Scattered Clouds
9:32 PM 7.3 °F -9.3 °F 0.5 °F 74% 29.83 in 4.0 mi WNW 13.8 mph - N/A Snow Light Snow
9:52 PM 7.7 °F -9.5 °F 0.1 °F 71% 29.84 in 10.0 mi NW 15.0 mph - N/A   Overcast
10:12 PM 7.7 °F -8.9 °F 0.5 °F 72% 29.83 in 10.0 mi NW 13.8 mph - N/A   Overcast
10:32 PM 7.7 °F -9.5 °F 0.1 °F 71% 29.84 in 10.0 mi WNW 15.0 mph - N/A   Overcast
10:52 PM 8.1 °F -8.4 °F 0.3 °F 71% 29.84 in 10.0 mi NW 13.8 mph 20.7 mph N/A   Overcast
11:12 PM 8.1 °F -9.0 °F 0.5 °F 71% 29.84 in 7.0 mi NW 15.0 mph 20.7 mph N/A   Overcast
11:32 PM 7.9 °F -8.0 °F 0.5 °F 72% 29.85 in 7.0 mi NW 12.7 mph - N/A   Overcast
11:52 PM 8.1 °F -9.6 °F 0.9 °F 72% 29.85 in 7.0 mi NW 16.1 mph - N/A Snow Light Snow